Current Version              Previous Version:    01  02  03  04  05  06  07  08  09  10  11  12  13  14  15  16  17  18  19  20  21  22  23  24  25  26  27  28  29  30  
   31  32  33  34  35  36  37  38  39  40  41  42  43  44  45  46  47  48  49  50  51  52  53  54  55  56  57  58  59  60  

[Printable]
383
ASUS44 KFWD 300515
RWRTX
NORTH TEXAS HOURLY WEATHER ROUNDUP
NATIONAL WEATHER SERVICE FORT WORTH TX
1200 AM CDT WED JUL 30 2014

NOTE: "FAIR" INDICATES FEW OR NO CLOUDS BELOW 12,000 FEET WITH NO
SIGNIFICANT WEATHER AND/OR OBSTRUCTIONS TO VISIBILITY.

TXZ118-119-300600-
DALLAS/FORT WORTH METROPLEX

CITY           SKY/WX    TMP DP  RH WIND       PRES   REMARKS
DFW AIRPORT    MOCLDY    77  62  59 S3        30.05F
DALLAS LOVE    MOCLDY    79  63  57 S3        30.06S
FTW MEACHAM    MOCLDY    77  61  57 SE5       30.05F
DAL-EXECUTIVE  MOCLDY    76  65  68 CALM      30.06S
FTW-ALLIANCE   MOCLDY    71  63  75 CALM      30.05F
FTW-NAS-JRB    MOCLDY    79  58  48 SE3       30.10F
FTW-SPINKS     PTCLDY    69  66  88 CALM      30.08F FOG
ARLINGTON      PTCLDY    72  64  76 CALM      30.06F
GRAND PRAIRIE  MOCLDY    76  64  65 CALM      30.08S
ADDISON        PTCLDY    77  63  61 SE3       30.08F
MESQUITE       MOCLDY    73  68  84 CALM      30.07R
LANCASTER      MOCLDY    71  65  81 CALM      30.07S
$$

TXZ091>094-102>105-117-120-121-131>134-300600-
NORTH CENTRAL TEXAS

CITY           SKY/WX    TMP DP  RH WIND       PRES   REMARKS
SHRMAN/DENISON PTCLDY    76  64  64 CALM      30.08S
GAINESVILLE    MOCLDY    73  59  60 CALM      30.09F
BOWIE          CLOUDY    71  65  80 CALM      30.07F
BRIDGEPORT     MOCLDY    71  64  80 CALM      30.09S
DECATUR        CLOUDY    74  57  54 SE6       30.08F
DENTON         MOCLDY    71  63  75 CALM      30.06F
MCKINNEY       PTCLDY    74  66  76 CALM      30.06S
GREENVILLE     MOCLDY    75  68  78 CALM      30.07S
ROCKWALL       PTCLDY    76  67  72 S3        30.06S
TERRELL        PTCLDY    76  68  76 CALM      30.07S
WAXAHACHIE     PTCLDY    71  62  72 CALM      30.09S
CLEBURNE       PTCLDY    73  66  78 E7        30.08F
GRANBURY       MOCLDY    76  63  64 E5        30.07F
$$

TXZ083>090-098>101-113>116-127>130-139>142-154-155-300600-
WESTERN NORTH TEXAS

CITY           SKY/WX    TMP DP  RH WIND       PRES   REMARKS
WICHITA FALLS  CLOUDY    73  67  81 SE5       30.06F
WF-KICKAPOO    CLOUDY    74  66  77 SE5       30.08F
VERNON         CLOUDY    74  66  75 E7        30.06F
ABILENE        CLOUDY    75  63  66 SE14      30.07F
ABILENE-DYESS  CLOUDY    74  66  76 SE10      30.07R
BRECKENRIDGE   MOCLDY    82  57  42 SE7       30.06S
GRAHAM         PTCLDY    75  64  69 E3        30.05S
MINERAL WELLS  MOCLDY    72  65  78 SE5       30.05F
STEPHENVILLE   MOCLDY    76  55  47 SE5       30.11S
COMANCHE       CLOUDY    78  56  47 SE8       30.09S
BROWNWOOD      CLOUDY    79  59  50 E5        30.08F
COLEMAN        CLOUDY    79  66  65 SE8       30.08F
BRADY          CLEAR     77  66  69 E6        30.10F
$$

TXZ143>147-156>162-174-175-300600-
CENTRAL TEXAS

CITY           SKY/WX    TMP DP  RH WIND       PRES   REMARKS
WACO           PTCLDY    74  62  66 CALM      30.06S
WACO-MCGREGOR  PTCLDY    77  61  57 CALM      30.08S
HILLSBORO      PTCLDY    75  64  68 E8        30.07F
CORSICANA      PTCLDY    75  68  78 CALM      30.08R
MEXIA          PTCLDY    73  71  92 NE3       30.06S
HEARNE         PTCLDY   N/A N/A N/A CALM      30.06S
CAMERON        PTCLDY    78  73  84 E3        30.05F
TEMPLE         PTCLDY    75  66  73 E6        30.07S
KILLEEN        PTCLDY    81  70  69 E7        30.08R
KILLEEN-SKYLRK PTCLDY    79  66  65 SE7       30.07R
FORT HOOD      CLOUDY    80  71  74 E5        30.07S
GATESVILLE     PTCLDY    79  66  65 CALM      30.09S
HAMILTON       MOCLDY    76  57  51 E13       30.09F
LAMPASAS       CLOUDY    78  73  83 E3        30.09R
$$

TXZ095>097-106>112-122>126-135>138-148>153-164>167-300600-
EAST TEXAS

CITY           SKY/WX    TMP DP  RH WIND       PRES   REMARKS
PARIS          MOCLDY    77  63  61 SE3       30.08S
SULPHUR SPRNGS PTCLDY    78  65  65 CALM      30.09R
CLARKSVILLE    MOCLDY    77  67  71 SE3       30.07S
MOUNT PLEASANT PTCLDY    73  69  88 CALM      30.09R
GILMER         CLEAR     75  70  83 CALM      30.08F
MINEOLA        PTCLDY    73  70  88 CALM      30.08R
TYLER          CLEAR     79  67  66 E3        30.07S
LONGVIEW       CLEAR     75  67  76 E5        30.06S
MARSHALL       CLEAR     76  69  78 CALM      30.09R
ATHENS         CLEAR     72  72 100 CALM      30.06S
JACKSONVILLE   CLEAR     78  72  80 CALM      30.09F
HENDERSON      CLEAR     76  67  73 CALM      30.08S
NACOGDOCHES    CLEAR     73  70  88 E3        30.07S
LUFKIN         CLEAR     76  72  87 CALM      30.06S
$$

SUPPLEMENTAL OBSERVATIONS (CENTRAL)

CITY           SKY/WX    TMP DP  RH WIND       PRES   REMARKS
LAKE TEXOMA      N/A     79  59  50 SW2         N/A
CADDO GRASSLND   N/A     79  66  65 S2          N/A
PAT MAYSE LAKE   N/A     79  66  65 SE7         N/A
GREENVILLE       N/A     77  66  69 S2          N/A
CEDAR HILL       N/A    N/A N/A N/A SE5         N/A
LAKE LIMESTONE   N/A     75  73  94 S1          N/A
MCGREGOR         N/A     75  64  69 NE3         N/A
$$

SUPPLEMENTAL OBSERVATIONS (WEST)

CITY           SKY/WX    TMP DP  RH WIND       PRES   REMARKS
MILLERS CREEK    N/A     75  55  50 S9          N/A
LBJ GRASSLAND    N/A     72  57  60 E3          N/A
COMANCHE         N/A     79  57  47 SE8         N/A
HAMBY            N/A     75  63  64 SE10        N/A
IVIE RESERVOIR   N/A     81  64  57 SE10        N/A
COLORADO BEND    N/A     77  68  73 SE6         N/A
$$

SUPPLEMENTAL OBSERVATIONS (EAST)

CITY           SKY/WX    TMP DP  RH WIND       PRES   REMARKS
CLARKSVILLE      N/A     77  66  69 SE5         N/A
TEXARKANA        N/A     70  66  88 CALM        N/A
CADDO LAKE       N/A     68  64  88 CALM        N/A
GILMER           N/A     73  66  78 SE1         N/A
HENDERSON        N/A     77  68  73 CALM        N/A
S SABINE NF      N/A     79  68  69 NE3         N/A
$$

SUPPLEMENTAL OBSERVATIONS ARE A COLLECTION OF AUTOMATED INSTRUMENTS
THAT ARE MAINTAINED BY A VARIETY OF FEDERAL AND STATE AGENCIES.
CERTAIN ELEMENTS...SUCH AS HUMIDITY VALUES AND SUSTAINED WIND
SPEEDS...MAY BE APPROXIMATED.